Regional Weather Roundup
Issued by NWS

Home | Current Version | Previous Version | Graphics & Text | Print | Product List | Glossary On
Versions: 1 2 3 4 5 6 7 8 9 10 11 12 13 14 15 16 17 18 19 20 21 22 23 24 25 26 27 28 29 30 31 32 33 34 35 36 37 38 39 40 41 42 43 44 45 46 47 48 49 50
000
ASUS43 KFSD 241702
RWRSD

WEATHER ROUNDUP FOR SOUTH DAKOTA
NATIONAL WEATHER SERVICE SIOUX FALLS SD
1200 PM CDT WED AUG 24 2016

NOTE: "FAIR" INDICATES FEW OR NO CLOUDS BELOW 12,000 FEET WITH NO
SIGNIFICANT WEATHER AND/OR OBSTRUCTIONS TO VISIBILITY.


SDZ001>005-009-010-012>017-241800-
NORTHWEST AND NORTH CENTRAL SOUTH DAKOTA

CITY           SKY/WX    TMP DP  RH WIND       PRES   REMARKS
BUFFALO          N/A     67  47  48 W21G29    30.11R
FAITH            N/A     68  48  48 W16G25    30.14F
MOBRIDGE       CLOUDY    72  49  44 NW15G25   30.05S
$$

SDZ012>016-024>037-041>051-057-063-072>074-241800-
SOUTHWEST AND SOUTH CENTRAL SOUTH DAKOTA

CITY           SKY/WX    TMP DP  RH WIND       PRES   REMARKS
RAPID CTY ARPT MOSUNNY   70  46  42 NW13      30.20S
PIERRE         CLOUDY    68  49  50 NW15      30.10S
CUSTER         PTSUNNY   64  30  27 W9        30.28R
ELLSWORTH AFB  MOSUNNY   68  46  44 N17       30.18F
PHILIP         CLOUDY    69  48  47 NW10      30.16S
PINE RIDGE     CLOUDY    64  47  53 VRB7      30.22F
WINNER         FAIR      68  50  52 NW12      30.16R
$$

SDZ004>011-016>023-039-040-241800-
NORTHEAST SOUTH DAKOTA

CITY           SKY/WX    TMP DP  RH WIND       PRES   REMARKS
ABERDEEN       MOSUNNY   72  51  47 W16       30.02R
WATERTOWN      MOSUNNY   72  53  51 W10       30.02R
BROOKINGS      CLOUDY    71  55  56 NW12      30.04R
$$

SDZ017-020-022-023-036>040-048>070-241800-
SOUTHEAST SOUTH DAKOTA

CITY           SKY/WX    TMP DP  RH WIND       PRES   REMARKS
SIOUX FALLS    CLOUDY    72  58  61 NW7       30.04R
HURON          CLOUDY    74  51  44 NW15      30.05R
CHAMBERLAIN    CLOUDY    71  53  51 NW13      30.12R
MITCHELL       CLOUDY    70  56  61 CALM      30.08R
YANKTON        CLOUDY    70  50  49 NW12      30.05R
$$

ABBREVIATIONS USED IN REMARKS
   TC - TEMPERATURE IN CELSIUS
  WCI - WIND CHILL INDEX
   HX - HEAT INDEX
  VSB - VISIBILITY




USA.gov is the U.S. government's official web portal to all federal, state and local government web resources and services.